Theta_e
347 349 350 351 351 353 354 354 355 356 358 357 358 359 362 360 362 362 363 364 360 360 361 359 357 358 359 359 358 362 365 366 366 367 365 364 366 366 367 366 369 370 370 368 364 363 363 358 358 358 355 354 353 351 352 351 352 351 349 352 349 348 347 349 349 349 346 341 345 344 346 349 349 349 347 346 345 346 348 352 354 354 355 356 356
345 347 349 350 351 352 354 355 356 355 358 359 359 360 363 364 363 363 364 365 362 361 362 361 361 359 359 358 360 361 363 362 361 364 361 360 366 369 368 366 370 370 369 368 366 362 359 356 357 355 354 354 353 354 353 351 351 351 350 347 350 346 346 347 347 347 341 338 337 339 341 345 347 345 342 343 344 346 347 348 349 345 344 346 349
343 345 348 348 349 351 353 355 356 356 358 359 362 362 364 364 364 365 364 364 363 363 364 363 364 365 363 362 360 360 364 364 360 361 363 360 364 366 367 367 369 367 367 367 361 360 358 356 356 355 355 354 353 350 351 350 350 348 349 346 344 347 345 348 347 348 339 341 342 340 333 334 341 344 342 341 342 343 343 342 342 341 342 345 347
342 344 344 346 347 349 351 353 355 356 357 360 361 362 363 364 365 365 364 365 365 366 366 367 368 369 369 370 370 363 358 361 364 365 365 363 360 363 365 367 367 364 363 362 360 360 358 357 356 355 355 355 351 347 348 349 349 349 349 348 347 342 342 343 348 347 344 342 333 333 335 333 332 334 337 341 341 340 340 340 341 341 342 345 344
343 342 343 343 345 346 349 352 353 354 355 358 361 362 363 365 367 367 366 366 366 367 368 368 369 368 370 370 369 365 364 361 360 359 361 362 360 361 361 365 365 363 362 361 360 360 359 358 356 356 355 354 349 347 348 347 350 349 349 348 346 342 338 341 344 346 345 347 340 335 332 331 328 332 334 338 338 338 338 339 339 337 338 343 341
345 343 342 342 344 346 349 352 353 353 354 357 360 362 365 366 368 369 367 367 366 368 369 368 365 363 361 358 356 357 356 357 356 356 356 356 355 357 362 363 364 364 363 362 360 359 359 358 358 356 353 350 347 347 350 348 349 350 348 348 346 346 344 339 340 346 345 347 347 343 340 333 332 335 334 329 341 338 339 337 336 334 338 338 340
345 344 342 341 343 345 348 351 353 352 355 357 360 363 366 367 369 370 369 368 368 368 369 368 365 364 363 361 359 358 356 358 362 361 358 357 359 359 361 364 364 362 361 361 361 360 360 359 358 354 350 349 349 350 348 349 349 349 349 348 347 348 345 340 338 338 343 344 344 342 343 342 341 336 331 333 329 335 336 333 331 334 335 335 337
344 344 342 342 344 345 347 351 354 352 355 358 359 361 365 368 370 370 370 369 370 370 369 369 365 364 364 362 361 359 358 358 361 363 365 363 360 361 360 361 363 363 361 362 360 358 357 355 356 350 348 348 349 349 350 349 350 350 350 349 349 347 346 342 340 339 337 338 343 341 340 342 342 340 340 335 332 329 331 333 333 332 333 330 330
344 343 342 342 344 346 348 351 354 355 354 356 359 361 364 368 370 371 370 370 371 373 371 370 368 365 365 364 361 362 362 361 361 361 361 363 362 361 363 361 362 362 361 360 359 356 356 354 353 350 348 350 350 350 349 350 351 350 349 348 347 347 346 345 343 340 340 338 339 339 339 338 338 339 339 338 332 330 328 327 330 332 332 329 330
344 344 345 344 345 346 349 352 354 353 355 358 360 362 364 367 369 370 370 370 371 372 372 372 370 368 365 364 362 361 362 361 360 359 360 361 361 361 362 361 360 360 361 359 358 356 355 352 350 349 350 349 350 350 350 350 350 350 350 348 348 346 346 345 343 342 342 342 340 339 337 336 337 336 334 335 334 334 328 327 330 329 328 328 331
343 344 345 346 347 348 349 350 353 355 355 357 359 361 362 364 368 369 370 370 371 372 372 371 371 369 366 365 365 363 362 362 360 360 359 360 360 359 359 359 359 356 356 358 356 355 352 350 347 348 350 351 350 350 350 347 346 347 349 349 348 347 345 345 344 344 344 342 340 339 337 336 335 333 333 333 333 330 328 327 328 328 328 329 332
344 344 344 345 348 349 349 351 354 356 357 357 358 360 362 364 366 367 369 370 371 371 371 370 369 369 369 368 365 365 363 361 360 359 359 359 359 357 358 357 357 355 355 353 352 350 350 349 349 349 350 351 350 351 351 348 347 348 348 348 348 347 347 346 345 342 342 342 340 339 339 339 339 336 335 336 333 331 331 329 329 331 331 331 333
344 345 345 345 346 347 348 351 355 357 357 358 358 357 361 363 365 366 367 370 370 370 370 370 370 370 369 368 367 367 365 364 363 362 363 362 360 358 358 355 355 354 354 351 351 350 350 351 350 348 350 351 350 349 348 349 348 347 348 348 347 347 345 345 343 343 342 340 339 341 340 340 339 339 339 337 336 335 333 329 328 330 328 329 332
343 344 345 346 347 348 350 352 354 356 358 358 358 358 360 362 365 365 366 370 370 370 369 369 369 369 371 369 368 367 367 365 364 363 363 364 362 360 358 355 355 355 353 350 350 349 350 351 352 351 352 352 351 351 350 350 350 348 348 348 346 347 347 346 344 343 343 343 343 340 340 339 339 340 339 338 335 334 332 330 330 330 332 328 332
343 344 345 346 347 350 350 352 355 356 357 356 358 360 361 362 364 365 365 368 370 369 369 369 368 369 370 370 370 369 367 365 364 363 363 363 362 361 360 357 354 355 351 353 352 351 350 351 352 350 350 351 351 350 351 351 351 350 349 350 348 347 347 346 344 344 342 342 343 342 340 340 339 340 338 339 338 336 334 333 331 327 325 325 327
342 344 345 348 349 351 350 352 354 356 358 356 359 360 360 361 364 365 365 367 369 369 369 369 369 370 370 371 370 370 369 368 366 365 364 364 363 362 361 360 357 355 354 354 352 351 350 350 352 350 351 350 351 351 352 350 351 349 349 348 347 347 346 346 345 345 343 343 342 343 342 338 340 340 340 339 338 339 338 337 334 332 326 323 325
342 343 345 348 349 351 351 353 353 354 355 356 358 361 361 362 363 365 366 367 369 369 369 369 369 369 370 371 371 370 370 368 365 365 364 365 365 363 360 359 358 357 355 355 354 352 352 351 351 349 350 351 351 352 350 350 351 349 347 348 346 345 346 346 344 345 344 342 342 341 340 340 341 343 342 341 341 342 340 338 338 333 331 326 323
344 346 348 349 350 351 351 351 353 354 355 357 359 362 362 362 363 364 365 365 367 369 368 369 369 369 370 370 371 371 370 368 366 366 366 365 364 364 362 358 357 356 355 354 353 352 351 351 350 349 349 350 349 350 349 349 350 347 348 348 347 347 345 346 345 344 343 343 342 341 341 339 341 342 341 343 342 342 340 340 339 338 336 330 327
342 344 346 348 349 350 352 351 352 354 358 359 359 360 361 362 364 363 364 365 367 367 369 369 370 369 370 370 371 370 370 368 367 368 367 364 362 362 361 359 359 357 355 354 352 351 350 350 350 349 348 349 349 348 349 349 350 347 346 345 346 346 345 343 345 344 342 342 342 340 341 339 341 340 341 341 345 346 343 340 339 339 339 335 332
341 343 345 347 348 349 350 350 350 353 356 357 357 357 357 359 363 363 364 367 368 368 369 368 369 369 369 371 372 371 370 368 368 367 364 363 362 361 360 358 358 355 353 353 350 348 349 349 348 346 345 347 347 346 347 348 348 346 345 343 344 346 344 344 342 342 341 342 341 340 341 340 341 341 342 341 341 346 347 344 343 339 338 337 336
342 343 344 346 348 348 349 351 351 353 356 356 355 355 355 357 359 360 362 364 364 367 368 368 369 369 370 370 370 369 368 367 367 366 365 364 363 362 359 358 357 353 352 350 349 348 350 349 347 347 345 346 347 346 346 346 346 346 345 346 345 345 344 343 343 342 341 341 341 340 341 341 342 341 341 340 337 337 339 338 337 336 333 335 334
344 343 344 345 348 348 349 350 352 352 353 354 354 355 355 355 356 358 358 360 360 365 368 369 369 369 369 369 368 368 367 366 365 365 363 362 362 360 359 357 354 354 352 347 348 348 349 348 346 345 346 346 346 347 345 345 345 344 345 344 343 343 343 343 342 342 341 340 341 341 340 340 342 342 342 341 338 335 336 334 334 333 332 333 335
342 343 343 344 348 349 349 352 353 352 354 355 355 354 355 355 355 357 356 358 359 362 367 370 369 369 369 367 366 364 363 360 361 361 359 360 359 360 358 356 353 350 351 348 347 348 349 350 348 345 346 347 347 348 346 345 344 344 344 343 342 343 343 342 341 341 341 341 340 340 339 340 340 339 339 340 340 339 337 336 335 335 334 334 335
344 343 342 345 347 351 352 352 353 354 355 356 355 356 355 355 355 356 356 357 358 360 365 368 368 367 366 364 364 363 360 358 357 358 357 358 358 359 358 355 352 347 349 349 348 349 349 350 348 346 346 347 347 347 346 345 346 346 344 343 344 344 343 342 341 341 340 340 340 340 339 339 339 339 339 339 339 338 338 337 336 336 336 335 335
344 343 343 345 347 350 352 353 355 355 355 357 356 356 355 356 356 355 356 357 359 361 364 366 366 363 363 363 363 361 359 358 357 356 357 356 355 355 355 352 350 346 349 350 350 350 349 349 346 345 345 345 345 346 345 344 345 345 345 344 344 345 344 343 342 342 341 341 340 340 339 339 340 338 338 338 338 338 337 336 335 335 334 334 333
344 344 344 346 350 353 354 356 357 357 357 358 358 356 356 357 357 357 357 358 359 360 362 364 362 361 361 361 362 360 359 358 357 356 355 355 354 351 349 347 348 346 346 346 348 348 348 348 347 345 345 345 345 346 345 345 344 344 345 345 344 344 343 344 343 342 342 342 341 341 340 340 339 338 338 339 339 337 337 336 336 336 335 334 334
343 345 346 350 351 354 356 358 358 357 358 359 358 357 356 359 359 358 359 360 362 361 363 363 361 360 361 362 362 360 358 356 355 355 355 353 350 347 346 345 345 344 344 344 345 346 347 347 347 346 344 344 345 345 346 347 346 345 345 345 344 343 344 344 344 342 341 340 340 341 341 341 340 340 339 340 340 339 337 337 337 336 336 335 333
345 346 348 349 352 356 357 359 359 357 359 359 358 357 358 359 359 359 359 359 360 363 364 363 361 360 360 361 362 360 358 356 355 356 355 354 352 350 348 347 346 344 344 343 343 345 346 346 346 347 346 345 345 345 347 347 345 345 345 345 346 345 343 342 343 343 341 339 340 340 340 341 341 341 340 340 341 340 338 337 337 336 335 334 332
343 347 348 350 352 354 357 357 357 358 358 359 358 359 360 361 361 362 360 360 364 365 365 363 362 360 359 360 360 359 359 359 357 358 357 356 354 353 350 349 348 346 344 342 342 343 345 347 347 347 346 345 344 345 345 344 345 346 346 345 345 345 344 342 341 340 340 341 340 339 339 339 339 342 341 339 339 338 340 337 337 337 336 335 334
342 346 348 350 352 355 356 356 357 357 358 357 358 359 359 359 359 359 361 361 364 366 365 363 360 358 358 358 356 358 358 358 356 355 356 356 354 351 349 348 348 345 346 346 345 343 343 346 346 346 346 345 345 345 341 335 338 345 346 346 345 344 344 342 341 340 339 339 339 339 339 342 342 343 340 335 329 328 328 336 339 338 336 334 333
344 348 348 350 352 353 355 355 356 356 358 358 359 360 360 358 359 360 361 362 364 365 363 361 360 360 358 357 355 355 356 356 356 356 356 356 354 352 350 350 349 347 347 348 347 345 343 345 345 344 344 344 344 344 335 330 330 332 342 343 343 343 344 343 341 340 340 339 338 338 340 341 343 339 342 332 329 326 325 323 322 324 331 339 335
344 346 348 349 350 353 354 354 354 357 359 359 360 360 360 358 360 359 360 361 364 364 361 360 360 359 357 355 355 353 353 356 357 357 356 356 355 353 351 351 350 349 349 349 347 347 347 346 345 343 343 344 344 338 329 328 329 328 331 343 341 340 341 341 341 340 339 339 339 338 337 338 339 340 340 343 337 328 324 324 322 321 321 321 324
346 347 347 348 349 352 354 354 355 356 358 359 361 360 360 360 361 362 363 362 363 362 362 361 361 358 355 355 355 353 352 353 357 357 355 354 354 352 350 349 349 350 349 349 347 347 349 348 346 345 343 343 344 335 326 326 326 325 325 332 340 339 339 340 340 340 340 339 339 338 338 337 338 342 340 340 339 341 330 322 323 323 323 321 321
345 347 347 350 350 351 353 353 356 358 358 360 362 360 361 361 360 362 362 363 364 363 361 360 360 357 356 355 355 353 352 352 355 357 355 354 353 352 350 348 348 350 348 348 346 346 348 348 346 346 344 344 344 333 324 323 322 322 323 328 340 339 340 340 341 340 340 340 339 338 338 338 339 340 341 342 344 343 342 344 342 340 340 334 322
346 348 348 350 351 353 354 353 354 354 356 358 359 360 361 359 360 361 362 363 364 363 361 359 358 357 355 354 352 352 351 352 353 356 355 353 352 352 350 347 346 346 347 347 345 348 348 347 346 345 345 345 346 327 320 320 319 318 320 325 339 340 340 341 341 342 342 341 341 340 340 339 340 340 340 343 345 345 344 342 341 339 339 340 339
346 350 349 351 349 351 352 355 355 354 355 357 358 358 357 358 361 361 362 363 363 362 360 357 356 356 355 353 352 352 351 352 352 353 354 352 351 350 348 347 347 347 346 346 348 347 347 346 346 346 343 343 343 324 321 320 318 317 320 334 338 339 339 341 341 342 342 342 342 342 341 341 342 344 340 333 338 343 340 337 337 338 338 337 334
347 347 348 352 354 355 356 358 356 355 355 356 357 357 358 358 359 359 361 361 361 360 359 357 356 355 352 352 351 351 351 352 352 352 351 351 349 349 347 346 342 340 342 344 345 343 346 345 344 345 345 344 345 333 320 318 317 316 321 337 338 339 340 341 342 341 341 343 344 346 346 345 342 342 334 322 325 330 335 334 335 335 332 331 330
345 349 351 355 355 355 358 354 355 355 355 356 356 356 358 358 358 358 358 358 358 359 359 358 357 355 353 352 352 351 351 351 351 352 352 351 351 350 347 346 341 341 341 341 344 346 348 346 343 344 342 343 345 333 316 315 314 315 326 338 340 341 342 343 342 343 343 342 342 341 341 342 338 338 328 321 321 329 334 334 336 335 334 333 333
347 350 352 351 355 356 353 354 354 352 354 358 357 357 357 357 357 356 357 358 358 359 359 358 357 356 353 352 352 352 352 351 351 352 352 351 350 348 347 347 345 343 341 345 344 342 344 346 344 343 346 344 344 334 314 314 313 314 326 339 340 342 341 341 340 340 341 341 342 340 333 332 334 334 322 319 316 325 334 334 335 334 332 332 333
351 349 351 353 354 352 350 353 354 357 360 359 358 358 358 357 357 358 357 358 359 359 361 361 358 356 353 352 353 353 352 352 352 353 351 349 348 345 344 344 343 340 338 342 342 341 343 343 344 343 342 344 344 346 345 312 312 312 318 340 342 340 339 339 340 338 337 340 341 343 337 321 319 318 317 311 312 313 331 333 332 330 330 330 334
342 344 350 356 355 355 355 356 361 362 360 360 359 359 358 359 359 358 358 359 361 362 361 360 358 354 352 353 353 352 352 352 352 352 350 347 346 344 344 346 343 340 340 342 344 343 342 341 341 342 346 344 342 346 348 310 311 311 315 322 341 342 341 340 339 337 337 336 337 339 340 325 315 313 312 309 307 308 315 332 332 330 332 326 323
354 354 351 351 351 356 359 360 362 361 360 361 362 360 360 360 359 358 360 361 362 362 360 358 355 353 352 352 352 352 352 351 351 351 348 344 345 345 344 343 343 343 343 343 344 343 342 341 343 344 342 345 345 341 343 319 311 309 310 314 336 342 341 341 338 337 335 336 336 336 338 329 313 311 309 307 304 306 307 324 333 310 308 313 326
352 354 354 355 355 355 354 357 360 362 362 363 363 360 359 359 357 360 361 363 361 359 358 356 353 353 353 352 352 352 350 349 349 350 347 343 343 343 343 346 345 345 344 343 344 342 341 340 342 342 343 345 347 345 330 340 312 308 307 310 315 326 323 339 337 335 336 335 336 335 337 314 310 305 304 303 302 303 306 320 310 308 309 307 314
350 351 352 352 352 352 353 356 358 359 360 361 360 357 356 357 359 362 362 361 361 358 355 353 352 352 352 352 351 351 350 350 348 347 344 343 342 342 343 343 343 342 341 341 343 342 341 339 338 340 342 342 343 345 331 329 327 310 306 306 308 308 311 331 336 336 336 334 334 336 328 303 301 299 299 301 303 305 319 307 305 306 308 309 319
350 351 353 353 352 352 352 353 355 358 359 358 359 357 356 358 360 360 359 359 357 356 353 351 351 351 351 350 349 349 348 348 347 344 343 343 342 343 342 343 343 342 341 341 342 341 339 340 338 340 342 342 344 343 340 331 325 318 309 305 307 307 308 307 326 333 335 333 312 302 300 301 301 299 301 303 305 304 303 303 304 306 310 322 325
352 353 353 353 353 352 350 349 351 354 355 357 357 358 358 358 356 355 355 356 355 354 350 348 350 349 348 347 346 346 347 347 346 346 344 345 343 342 341 340 340 341 342 341 339 340 337 337 338 338 339 341 340 338 337 335 330 327 318 310 309 309 313 312 314 325 314 309 308 306 304 305 306 309 319 323 326 327 309 307 307 310 324 324 324
355 355 353 353 352 349 348 346 344 347 349 352 355 356 355 352 351 352 353 354 353 349 348 347 348 347 348 347 346 345 345 345 346 345 345 344 343 341 340 340 338 340 342 340 336 336 339 338 337 337 336 338 334 333 335 336 336 336 335 326 322 322 313 313 319 326 323 325 320 320 323 314 314 316 318 317 319 316 319 318 322 322 324 323 324
356 355 354 353 350 347 345 344 343 346 348 349 349 349 349 350 349 349 350 350 349 347 346 345 345 345 345 346 345 344 344 342 343 341 340 341 340 340 339 338 338 339 337 335 335 336 336 336 335 334 334 332 332 334 335 334 334 334 334 336 334 332 330 329 330 332 333 331 328 316 315 324 323 324 324 326 324 325 323 322 322 322 322 322 320
354 357 358 355 355 353 351 349 348 349 348 347 346 345 346 346 346 347 350 348 346 346 346 345 343 344 344 345 344 343 342 342 342 341 334 327 332 341 340 341 339 342 346 339 336 339 338 338 336 334 333 333 335 335 337 316 326 307 326 335 333 331 331 332 320 309 329 329 328 326 325 325 326 324 323 323 322 321 321 321 322 322 322 322 321
351 352 353 353 354 353 352 350 350 350 348 347 345 345 346 345 346 347 349 348 345 344 343 341 342 341 341 340 341 341 342 340 339 334 328 321 308 296 303 333 329 311 304 299 308 341 341 337 334 336 332 335 334 334 306 303 300 301 300 298 300 299 300 312 308 309 321 325 324 324 325 325 324 324 323 323 320 320 320 319 320 316 318 318 318
347 348 350 351 352 352 353 351 351 350 348 347 346 345 346 345 347 348 347 347 345 342 340 339 340 339 339 340 340 340 340 341 338 336 332 326 321 314 297 294 301 301 297 293 293 296 300 305 324 335 319 303 304 299 297 295 294 296 297 298 300 300 298 298 303 320 322 323 324 323 323 322 322 322 321 320 320 318 318 318 318 318 317 316 315
Wind_Speed
15 16 17 16 16 14 13 12 12 13 13 13 13 14 13 12 12 12 11 11 10 10 9 9 9 9 8 9 8 7 7 7 6 6 6 5 5 5 5 4 4 4 4 4 4 3 2 1 1 1 1 2 1 2 3 3 2 2 2 3 3 3 2 2 1 4 4 2 1 2 2 1 2 1 0 1 0 1 1 1 1 1 1 1 1
15 14 16 16 15 16 14 12 13 14 14 14 15 14 13 13 13 12 10 11 11 10 9 9 9 8 8 8 8 7 7 7 7 7 7 6 6 6 5 4 5 4 4 4 4 3 3 2 2 2 2 1 1 2 2 2 2 3 2 3 1 2 2 3 3 4 2 3 3 1 1 3 2 2 1 1 2 1 2 2 1 1 1 1 1
15 16 17 16 18 18 15 13 13 15 15 14 14 14 14 13 12 12 11 11 11 11 10 9 9 9 8 7 7 7 7 6 6 6 6 6 5 6 6 5 6 5 5 5 4 4 4 3 3 2 2 1 1 2 1 2 1 2 2 3 1 2 1 0 2 4 5 4 2 3 1 3 2 1 2 2 2 2 2 4 3 4 4 2 2
17 17 18 18 17 16 16 15 14 14 14 14 14 15 13 12 12 13 12 12 11 11 11 10 10 9 8 7 6 7 6 6 7 6 6 6 7 6 6 6 6 5 5 5 4 4 4 4 3 2 2 1 1 2 2 2 2 2 2 2 1 3 1 2 3 3 5 5 2 3 1 4 4 1 1 2 2 1 2 5 4 2 4 3 1
17 18 18 18 18 18 17 16 15 15 15 14 14 14 11 14 14 14 12 12 11 11 12 10 10 10 9 8 7 6 6 6 6 7 7 7 7 7 6 6 6 5 5 5 4 4 4 4 3 2 2 2 1 2 2 1 1 1 1 1 1 3 2 2 1 2 2 2 4 3 1 3 4 4 3 2 4 2 2 6 4 4 5 4 3
17 18 19 19 19 18 18 17 16 15 15 14 14 14 13 12 14 13 12 11 12 13 13 11 10 10 9 9 9 7 7 7 8 7 7 7 7 5 6 6 6 5 5 5 5 5 5 4 3 3 3 3 2 1 0 1 2 3 1 1 0 0 2 1 1 2 2 3 2 3 4 5 5 5 4 1 2 4 4 4 4 4 4 3 2
17 17 18 19 19 19 18 18 17 17 16 15 14 14 15 13 13 14 12 11 11 12 13 11 11 10 11 10 9 8 8 7 6 6 6 6 5 5 4 4 5 6 5 5 5 5 5 4 5 4 3 3 2 2 2 2 1 1 1 1 0 1 1 1 1 1 1 0 2 3 3 3 4 5 4 3 3 1 3 3 5 4 4 4 3
16 18 18 19 19 19 20 19 17 17 16 15 14 14 15 14 14 14 11 11 11 11 13 12 11 11 11 11 9 9 9 8 8 6 6 5 5 5 4 4 5 5 5 6 6 6 6 5 5 4 4 4 3 3 2 1 1 1 1 0 1 1 1 1 2 1 2 2 2 2 2 4 4 3 4 4 3 0 4 2 5 4 4 4 5
18 16 19 20 20 20 19 18 18 18 17 15 14 13 13 14 14 14 13 12 11 13 12 13 11 11 11 10 10 9 9 8 7 7 6 6 6 5 5 4 5 6 7 7 7 6 6 6 6 5 5 5 4 3 3 2 2 2 2 2 2 2 1 0 1 2 2 2 1 1 1 1 1 2 2 2 3 3 2 3 2 1 1 3 3
18 19 18 19 19 20 19 19 18 17 17 15 15 14 13 13 14 14 14 12 11 13 12 13 13 11 11 11 12 10 9 8 8 7 7 6 7 7 6 6 6 6 7 7 7 7 7 6 6 6 6 5 4 3 2 2 3 3 3 3 2 2 1 2 2 0 1 2 0 1 1 1 2 2 2 1 1 2 3 3 2 2 2 1 1
17 19 19 19 20 19 19 19 18 18 16 16 15 14 14 14 14 15 15 12 12 13 14 14 13 12 11 12 13 12 12 10 8 8 8 8 8 8 7 7 6 6 6 6 7 7 7 6 6 6 5 5 4 4 3 3 4 4 3 3 3 3 2 2 2 1 1 1 1 1 1 2 2 2 2 3 3 3 3 4 3 3 5 1 2
18 18 19 19 19 19 19 18 18 18 16 16 16 15 14 14 14 16 15 14 13 13 14 14 13 13 12 13 13 13 12 10 11 10 11 10 9 8 7 6 6 6 6 6 7 8 7 6 6 5 5 5 5 4 3 3 3 3 3 3 3 4 3 3 3 2 3 2 2 2 2 2 1 2 1 0 2 3 3 4 5 2 3 3 2
18 17 17 18 18 18 19 18 17 17 16 17 17 16 15 14 15 16 16 15 14 14 14 15 14 13 12 13 13 12 12 12 11 11 10 10 8 8 7 7 7 7 7 7 8 8 7 6 6 5 5 6 5 5 4 4 4 3 3 4 4 5 4 3 3 3 3 2 2 1 2 2 2 1 1 3 2 1 3 4 5 4 4 5 3
18 18 18 17 17 17 18 18 17 16 18 17 17 16 14 13 15 16 16 16 14 14 15 15 15 14 13 12 12 11 12 12 11 11 10 8 7 8 9 8 7 8 8 8 7 8 7 6 6 6 6 6 6 6 5 5 5 4 4 4 4 4 3 4 3 3 3 3 3 3 3 3 3 2 3 3 3 3 4 5 5 5 6 6 4
18 18 18 18 18 19 18 18 17 17 19 18 16 16 15 14 15 16 16 16 16 15 14 15 14 14 13 13 12 11 11 11 11 10 9 9 8 8 9 8 7 7 7 7 7 7 7 6 6 7 7 7 7 6 6 5 5 5 4 4 4 3 4 3 3 4 4 3 4 4 3 4 3 3 3 3 3 3 3 4 4 6 6 6 6
19 19 19 20 19 19 18 17 17 17 18 17 18 16 16 15 15 17 17 16 16 15 15 15 14 13 14 14 13 12 10 10 9 9 9 9 9 8 8 8 7 6 7 7 7 7 7 7 7 7 7 7 7 6 6 5 5 5 4 4 4 3 3 4 3 4 4 4 5 5 4 5 4 4 3 4 3 3 3 4 4 5 6 7 6
19 19 18 20 19 19 19 19 18 18 17 18 17 17 18 17 16 17 17 16 16 16 16 14 14 14 14 14 13 13 12 11 10 11 11 9 9 8 8 8 8 7 6 7 7 7 7 7 7 7 7 6 7 6 6 5 5 5 5 5 5 4 4 4 4 4 4 4 5 6 5 5 4 4 4 4 3 3 4 4 4 5 6 7 7
20 20 20 21 21 22 21 19 20 20 20 19 19 18 17 17 17 17 16 17 16 16 16 15 15 14 13 14 13 13 11 11 10 10 10 9 9 8 7 8 8 7 6 6 7 7 7 7 6 6 6 7 7 6 6 6 6 5 5 5 5 4 4 4 5 5 5 5 5 5 5 6 5 5 5 5 4 4 5 5 5 5 5 7 7
18 19 17 17 18 19 19 20 21 20 19 19 19 18 16 16 17 18 19 19 18 15 14 13 13 11 11 13 13 12 11 10 9 9 9 9 9 8 8 7 7 7 7 7 7 7 7 7 7 7 7 7 7 7 6 6 6 5 5 5 5 5 5 5 4 5 5 5 5 6 6 6 5 6 5 5 4 5 4 4 5 5 6 7 8
17 18 19 19 20 22 23 22 21 20 19 18 20 18 19 18 17 17 17 16 16 16 15 15 14 12 11 11 12 11 11 10 10 10 10 10 10 9 9 9 8 7 8 8 8 8 8 8 8 8 8 8 7 7 7 6 6 6 5 5 5 5 5 5 5 4 4 4 5 6 6 6 6 5 6 5 5 4 5 5 5 5 6 6 7
17 17 18 20 20 21 21 21 20 19 18 18 19 20 20 19 19 20 19 18 18 17 16 14 13 13 13 13 13 12 12 11 11 11 9 9 9 9 9 8 8 8 8 9 9 9 9 8 8 8 8 7 7 7 6 6 6 6 6 5 5 5 5 5 5 5 5 5 5 6 7 7 7 7 6 6 6 6 6 6 6 6 6 6 6
16 16 16 16 16 17 18 17 16 17 18 19 18 18 19 20 18 18 18 18 18 17 15 14 13 12 14 13 14 13 13 11 12 11 11 11 11 10 10 10 10 9 9 9 10 9 9 9 9 8 8 8 7 7 7 6 6 7 7 6 6 6 7 7 6 6 6 6 6 7 7 7 7 7 7 7 7 7 6 6 5 6 6 6 6
15 15 15 14 15 15 15 17 18 19 18 18 17 17 18 19 19 18 18 19 19 17 15 13 13 14 16 16 16 14 13 13 13 12 14 13 12 11 10 11 11 10 10 10 10 9 9 9 9 8 8 8 8 8 8 8 7 8 8 7 7 7 7 7 7 8 8 7 8 8 8 7 6 7 7 7 7 6 6 6 6 5 7 7 7
12 13 13 13 13 14 14 17 17 16 16 18 17 16 16 17 18 18 19 20 19 16 15 14 15 17 18 16 14 13 15 16 15 12 14 13 12 11 10 10 10 9 9 9 10 10 9 9 9 9 9 9 9 9 9 9 8 8 8 9 9 8 8 8 8 9 9 8 9 9 8 7 7 8 7 7 6 6 6 5 5 5 6 8 7
11 13 13 12 13 15 15 16 16 16 16 15 16 17 16 16 17 17 17 18 17 15 15 16 17 19 17 16 15 14 16 15 15 14 15 14 11 8 7 9 9 9 8 7 8 9 9 10 10 10 10 10 10 9 9 9 8 8 9 9 9 9 9 9 10 10 10 10 10 10 9 8 7 8 7 7 6 7 7 6 6 6 7 7 7
11 12 14 15 14 13 13 14 14 15 15 15 15 16 16 16 17 17 16 15 16 16 17 18 17 18 17 18 15 15 16 16 16 15 17 16 13 13 14 13 13 13 13 13 12 10 9 10 10 10 10 10 9 9 10 10 10 9 9 10 9 9 10 10 10 10 10 10 9 10 10 9 8 8 8 8 8 9 8 8 8 7 7 7 8
12 13 12 11 13 16 17 16 15 16 16 15 16 16 16 15 16 16 14 13 14 16 16 17 17 17 15 16 15 15 14 16 16 13 13 14 14 15 14 14 14 14 13 12 12 11 9 9 9 9 10 10 10 10 9 9 10 10 10 10 10 10 10 9 10 10 10 10 10 10 10 9 9 9 10 10 9 9 8 9 8 8 8 8 8
10 12 14 16 16 15 15 16 16 16 15 14 15 15 15 15 15 14 14 13 13 15 16 16 16 15 14 14 13 14 16 17 14 13 14 15 15 13 12 11 10 12 12 13 12 12 11 11 11 10 10 9 9 10 10 10 10 10 10 10 10 10 10 10 10 10 10 10 10 10 10 10 10 10 11 10 10 9 8 9 8 8 8 9 9
13 14 15 15 16 16 17 17 16 16 17 16 15 14 13 13 12 12 13 14 13 14 15 15 14 13 12 13 14 14 14 13 13 14 14 15 15 15 13 13 13 13 12 13 12 12 11 11 10 9 9 9 9 9 9 9 10 11 10 10 10 10 10 10 10 10 10 10 10 10 10 10 11 10 10 9 9 7 7 8 8 8 9 9 9
14 15 16 16 16 15 15 16 16 17 17 16 15 14 15 14 14 14 14 14 13 14 14 14 14 13 13 15 17 13 12 12 13 14 15 14 13 13 14 14 14 14 12 11 11 11 11 12 11 10 9 9 9 8 9 11 10 9 9 8 9 9 10 10 10 10 10 10 11 10 10 10 8 8 9 11 12 11 9 9 9 9 10 10 9
14 13 14 14 15 15 15 17 17 18 18 16 15 14 14 15 14 15 15 14 14 14 15 14 12 12 14 16 17 16 14 15 15 14 14 14 14 12 13 14 13 13 12 11 10 11 11 11 11 10 10 9 9 9 11 11 11 10 9 10 9 8 9 10 10 10 10 10 10 10 9 8 9 10 11 12 12 12 12 13 14 13 10 9 11
14 14 14 14 16 17 18 19 19 18 17 15 14 14 14 14 14 14 14 14 14 14 14 13 13 13 16 17 16 16 16 16 15 14 14 13 12 12 13 13 12 13 11 10 10 10 10 10 9 10 10 9 9 10 12 13 12 12 10 9 10 9 9 9 10 10 9 9 10 10 9 8 9 11 11 10 12 14 14 15 15 14 15 14 11
13 14 16 18 19 19 18 17 16 16 15 16 15 14 14 14 13 13 12 14 14 14 14 14 15 17 18 17 16 16 17 17 15 14 12 11 12 13 12 12 13 13 12 11 11 11 10 10 9 9 9 9 9 10 14 14 13 12 13 11 10 10 10 10 10 10 10 10 10 10 9 9 9 9 9 11 11 10 13 15 15 14 13 13 13
11 13 14 13 12 12 13 15 15 15 16 14 14 13 12 12 13 12 13 13 13 13 14 15 16 17 17 17 15 17 17 18 17 13 13 14 14 14 14 13 12 12 12 11 10 11 10 10 9 9 9 9 10 10 14 14 14 14 14 12 10 12 11 11 11 10 10 11 11 11 10 10 10 10 10 10 9 9 9 8 8 8 9 12 15
10 11 12 14 14 13 14 14 14 14 13 13 12 11 11 12 12 13 13 13 13 13 14 15 16 16 16 15 15 16 17 17 17 14 13 14 14 15 13 12 11 12 12 10 11 10 8 9 10 10 9 9 8 11 14 15 15 15 14 12 10 11 11 10 10 11 11 12 12 11 12 12 11 11 10 7 8 8 7 8 9 9 9 9 7
11 12 13 14 15 16 15 15 13 13 13 13 13 13 13 13 13 13 13 12 13 13 13 14 15 15 15 15 15 17 16 15 16 17 14 13 15 16 12 10 8 8 8 9 8 7 8 9 9 9 9 9 8 14 15 16 15 13 11 8 9 10 11 11 11 11 12 11 11 12 11 11 11 10 9 6 6 7 9 10 10 9 9 7 6
12 13 14 14 14 14 15 14 14 14 14 13 13 13 13 13 13 12 12 12 12 13 13 14 14 14 14 15 15 15 15 14 15 16 18 17 17 16 12 10 10 10 11 10 8 9 10 9 9 8 8 8 8 12 16 16 14 12 10 9 9 9 10 11 11 12 12 12 10 10 8 6 7 10 7 7 7 6 9 11 10 8 6 7 10
13 12 13 14 14 14 14 14 15 14 14 13 14 14 13 13 12 12 13 12 12 12 12 13 13 14 13 13 14 14 14 13 14 16 16 16 15 14 12 10 11 11 10 10 8 7 8 8 8 7 8 9 10 9 15 14 13 14 12 8 7 8 9 9 10 10 10 10 11 10 9 9 11 11 8 9 9 8 9 10 9 9 9 9 9
13 15 16 16 15 16 16 14 14 14 14 14 15 16 14 13 12 12 11 11 11 11 12 12 13 13 13 13 13 13 13 13 14 15 14 15 15 13 11 9 9 10 9 8 9 10 9 7 6 7 6 8 10 6 14 13 13 14 11 7 7 8 8 9 8 10 10 9 9 8 12 12 11 11 6 3 9 9 9 10 9 9 10 10 8
12 13 15 14 14 16 15 15 15 14 15 15 15 14 13 12 11 10 10 10 10 10 10 10 12 12 12 12 12 12 12 12 12 12 12 13 11 10 9 9 9 10 10 9 10 11 10 7 4 3 5 7 7 7 6 12 13 13 13 8 7 8 9 9 9 10 9 9 9 9 8 14 14 13 7 8 9 10 9 10 10 9 9 10 7
12 13 15 14 13 14 16 16 13 14 13 13 13 13 13 12 11 10 10 9 8 8 9 10 10 11 11 12 11 11 12 11 10 10 11 11 10 9 8 6 8 10 11 10 11 9 7 6 3 1 4 7 8 6 4 11 11 12 12 10 6 6 7 7 9 9 9 10 9 8 8 10 15 14 11 10 9 9 8 7 8 9 4 5 5
14 15 13 14 14 14 15 14 13 13 13 12 12 13 12 12 11 10 9 8 8 8 9 9 10 9 10 10 11 10 9 8 8 8 9 9 6 5 7 9 9 10 13 13 11 8 5 4 3 1 6 6 1 3 2 8 10 10 11 12 6 6 5 8 8 9 9 9 8 7 7 3 10 9 10 10 9 7 6 7 5 5 6 6 5
17 15 14 15 14 14 14 14 11 11 10 11 13 13 12 11 11 10 9 9 9 9 10 10 10 10 10 10 10 10 7 6 7 9 11 9 7 7 7 7 10 11 12 12 9 7 5 4 2 1 3 4 3 3 5 6 11 10 11 9 7 6 7 4 8 9 10 9 9 8 0 9 8 7 6 5 5 6 6 6 4 3 3 2 5
16 16 15 15 14 13 12 11 10 9 9 9 10 11 11 11 12 10 9 9 10 10 9 9 9 10 10 10 10 10 8 6 8 8 9 8 7 8 7 7 10 10 10 9 7 6 6 4 3 3 5 4 3 3 8 6 7 8 7 7 7 8 5 5 7 9 8 8 8 6 4 8 8 8 7 6 6 8 5 3 3 3 4 5 5
17 15 14 14 15 15 14 12 10 10 9 8 7 10 11 12 10 8 9 9 10 10 10 9 9 9 8 8 8 7 8 8 8 9 9 7 9 9 9 11 11 10 8 7 6 5 4 3 3 5 4 5 5 2 2 7 8 8 7 5 3 3 3 3 5 8 7 5 7 8 8 7 8 7 7 6 6 8 8 5 5 6 7 5 4
16 15 14 14 13 13 14 15 11 10 10 8 8 8 11 9 8 7 6 6 7 7 7 7 6 5 5 6 8 9 8 7 9 10 11 8 8 8 8 9 10 9 8 6 5 4 2 4 5 5 5 4 5 3 4 5 6 7 6 8 7 5 4 4 6 8 7 4 3 4 7 6 4 3 5 6 7 4 7 6 7 8 5 4 4
13 11 12 11 12 12 11 12 11 8 8 8 8 8 9 8 8 7 7 7 7 8 7 6 6 6 6 7 7 7 7 6 8 7 7 7 7 9 10 9 11 9 7 6 5 6 6 6 4 4 3 3 4 5 6 6 7 6 5 7 5 3 5 6 6 7 8 7 6 5 2 2 3 4 3 4 5 7 3 4 5 5 6 5 5
12 12 12 13 13 13 12 11 9 8 8 8 8 9 8 8 8 8 8 8 8 8 8 7 7 6 6 7 8 6 5 7 7 7 7 7 7 7 7 9 8 7 7 6 6 7 7 5 5 6 6 6 8 8 7 7 7 6 5 7 5 4 5 5 7 6 6 5 5 5 5 6 6 7 6 5 4 3 4 4 4 4 4 4 3
11 11 11 11 12 13 12 12 10 8 8 8 8 8 8 8 7 8 8 9 9 9 8 8 6 5 5 4 5 7 7 6 7 4 5 7 5 3 7 5 6 4 3 5 8 6 6 6 6 6 7 8 7 7 3 9 8 8 6 1 5 6 5 5 4 7 4 4 4 5 7 8 8 7 7 6 6 4 4 4 5 6 6 6 6
11 10 12 13 12 12 12 11 9 8 8 8 8 7 7 7 8 8 8 9 9 8 8 7 6 6 7 7 6 7 6 5 7 6 6 6 12 13 13 5 5 11 14 14 9 1 1 3 6 4 2 2 2 5 10 13 9 5 3 4 5 8 7 6 8 6 4 6 7 8 8 8 7 6 6 5 5 5 5 5 4 3 3 7 6
11 11 12 11 11 10 11 10 8 7 8 8 8 7 6 7 6 7 8 9 7 7 5 6 6 7 7 7 7 7 7 5 6 6 7 7 4 8 14 16 14 11 11 12 11 11 11 10 5 3 6 11 10 9 12 10 7 5 5 6 5 4 6 5 2 2 5 6 7 8 8 7 6 6 6 4 4 4 4 5 5 5 5 5 6
Wind_Direction
196 195 196 197 196 194 195 195 196 196 197 199 198 199 197 198 196 198 194 199 205 201 204 206 208 211 216 218 219 212 217 215 220 222 228 228 221 225 219 218 203 192 193 201 225 214 255 255 154 184 228 252 294 309 335 333 317 296 283 279 283 292 274 264 342 312 302 281 272 253 155 223 168 201 120 145 121 111 171 135 114 93 85 128 110
196 192 195 197 197 195 194 197 196 196 196 198 199 200 197 199 201 199 195 197 204 206 205 208 211 213 211 215 217 217 211 214 220 223 230 225 211 222 223 224 198 198 193 205 221 212 219 190 192 205 224 258 296 335 308 292 265 260 293 262 250 323 323 344 15 308 265 343 338 345 123 145 178 198 181 115 96 116 134 127 134 113 51 22 348
198 196 195 198 198 197 193 197 198 200 196 197 199 200 200 201 204 205 203 201 205 207 208 209 210 212 214 214 214 218 220 228 233 234 229 236 217 223 232 218 210 210 210 213 220 207 202 200 197 199 226 222 236 266 259 254 267 283 274 310 291 180 282 13 358 344 330 346 303 257 143 185 167 220 287 86 86 106 89 65 33 42 39 26 4
198 198 197 198 199 199 196 197 198 199 197 195 196 198 201 204 204 204 207 207 206 206 208 211 210 206 208 215 212 227 230 221 232 238 238 241 238 227 225 221 224 227 214 219 208 209 202 203 201 206 189 192 273 268 256 250 234 234 235 239 303 292 160 55 38 9 349 337 357 341 15 296 143 176 53 70 158 88 116 94 44 62 70 20 17
200 200 201 198 199 200 199 198 198 199 199 197 196 196 198 199 199 199 201 204 207 204 203 206 205 207 204 212 225 226 233 237 228 229 228 229 236 228 221 211 221 235 220 220 213 198 202 205 208 193 188 205 214 230 233 266 259 236 255 263 290 331 318 81 88 30 7 352 335 306 206 210 16 40 355 39 323 91 37 63 68 48 42 35 15
202 203 203 202 199 199 198 197 200 200 201 200 197 197 197 198 198 197 200 203 206 205 203 203 206 209 207 212 213 214 219 214 217 224 222 218 229 220 210 206 222 229 223 220 205 195 196 199 199 194 203 179 204 226 270 259 231 261 170 273 225 63 337 334 33 100 347 4 6 353 347 349 348 348 301 102 55 70 87 76 73 53 69 61 40
204 206 204 205 202 200 199 199 201 202 200 199 198 197 196 196 195 195 197 199 201 202 202 203 207 209 209 209 210 209 211 216 223 231 239 231 231 228 225 213 219 226 219 213 203 199 196 193 192 203 194 187 187 209 216 232 215 248 236 206 50 82 227 315 307 65 111 10 13 351 354 349 10 330 3 326 138 69 351 129 96 98 96 91 78
203 205 205 205 202 202 201 199 201 204 200 197 198 198 195 194 190 191 195 198 197 199 199 200 205 204 205 207 210 214 214 216 207 213 220 228 225 237 232 224 212 214 218 209 211 201 210 203 198 198 192 193 183 205 227 249 279 225 234 196 188 201 221 301 330 350 314 74 68 343 2 22 7 355 343 340 334 249 142 68 140 144 161 116 102
207 202 204 202 203 202 203 202 202 204 203 199 198 197 195 193 191 190 193 193 194 192 195 199 202 201 202 205 208 213 217 218 214 212 218 218 229 230 231 222 217 217 218 204 210 208 199 196 188 197 193 195 190 208 196 192 222 222 202 201 200 192 219 6 276 312 308 35 23 109 21 327 6 3 325 279 326 324 212 148 122 358 149 85 77
208 208 204 203 203 204 203 204 202 203 205 201 200 197 195 192 191 191 193 192 190 189 190 194 199 198 203 205 208 210 212 218 223 214 216 215 227 227 223 218 213 209 211 209 201 197 188 189 196 198 199 200 194 215 202 189 209 217 215 213 208 215 177 213 252 336 309 38 342 4 267 200 214 195 215 274 275 307 312 318 295 155 218 116 177
206 208 206 204 203 204 203 204 204 203 202 200 199 198 196 194 192 193 194 190 187 187 189 192 196 201 205 208 210 212 212 214 215 216 212 213 220 222 214 214 211 213 210 200 191 189 190 197 205 198 205 193 200 201 214 216 201 204 216 208 207 214 195 200 204 187 213 213 180 218 287 298 355 318 349 340 331 294 296 296 292 356 341 275 151
202 204 207 204 202 203 203 203 202 200 197 197 199 197 197 195 192 194 195 192 188 188 188 192 195 199 205 208 211 213 215 213 214 217 216 218 219 222 217 217 216 218 210 189 193 193 195 199 209 202 200 199 196 200 212 224 242 199 207 213 207 202 199 205 224 208 208 200 214 192 216 250 211 252 294 210 277 307 316 304 302 290 260 254 140
200 200 202 202 201 201 201 200 197 196 195 195 198 199 197 196 193 193 195 193 191 188 190 193 195 198 202 207 211 213 215 213 214 216 216 217 219 224 215 222 219 212 199 198 199 200 191 199 202 204 199 203 203 198 209 217 233 221 212 217 209 202 209 215 217 222 226 246 243 208 258 261 234 237 227 248 205 241 268 291 290 326 292 285 296
199 198 201 200 199 198 197 196 194 193 194 193 196 198 195 195 194 195 197 192 191 191 192 193 196 199 200 203 206 208 210 213 215 218 215 212 205 218 224 225 216 202 199 202 203 199 198 198 202 206 205 197 200 205 213 213 211 223 212 220 214 213 219 224 238 241 232 230 233 241 236 234 252 219 213 240 275 249 259 280 317 301 291 293 277
198 197 198 198 196 195 194 193 191 192 193 194 194 196 194 193 192 194 196 194 192 192 192 195 196 199 199 201 203 205 207 208 211 220 214 211 204 208 220 220 211 207 204 200 203 197 201 200 202 209 199 199 200 204 206 207 206 214 218 220 227 210 216 229 238 238 237 228 229 243 255 256 260 262 258 240 253 273 279 296 295 298 296 299 295
198 197 197 196 193 194 195 193 194 194 194 195 193 191 193 193 192 194 196 193 192 193 195 196 196 196 199 200 200 200 199 204 208 211 208 209 208 198 201 206 211 206 200 196 194 197 198 202 201 208 201 201 203 206 205 204 198 209 211 213 223 198 217 219 234 240 240 238 241 239 245 263 261 266 270 275 275 282 286 287 285 279 288 294 301
197 199 198 195 193 193 194 195 195 196 195 195 192 190 192 191 191 193 195 193 193 194 196 196 196 197 198 199 198 197 195 192 197 195 191 193 195 194 207 214 214 206 200 192 194 194 198 203 204 209 202 206 204 204 204 206 200 207 208 212 219 214 212 226 233 234 243 245 246 243 251 257 263 264 270 271 272 267 270 275 274 280 286 285 284
195 198 198 195 192 192 195 196 195 194 193 191 191 191 191 190 190 190 191 195 195 195 196 195 194 196 196 198 198 196 194 193 194 189 187 186 187 194 206 219 211 200 196 194 194 192 199 202 210 213 210 207 208 203 202 203 204 211 209 212 216 223 222 227 231 241 245 243 243 249 250 254 253 252 252 259 254 250 259 260 269 270 275 280 287
197 200 199 199 197 195 195 197 197 196 191 188 190 189 188 191 192 191 191 193 194 194 194 194 194 194 196 195 194 192 192 191 189 184 181 185 192 191 200 205 204 197 194 192 193 197 201 201 209 213 211 211 204 209 202 205 205 221 214 216 209 215 224 229 235 238 251 250 251 255 255 258 259 265 267 262 254 247 250 262 266 266 267 269 280
198 199 199 199 199 198 196 195 195 194 191 189 190 191 192 192 191 194 195 193 192 192 189 191 192 193 192 189 187 186 184 183 180 179 185 188 192 194 198 201 198 194 192 190 197 204 203 205 206 213 216 208 205 209 208 206 210 220 221 226 204 207 221 233 244 241 251 255 261 260 257 257 257 260 263 257 255 253 261 268 269 267 263 262 265
200 201 201 200 200 201 199 195 193 192 189 191 192 192 194 193 193 193 192 192 193 193 190 189 186 189 185 182 179 180 181 178 179 182 185 188 188 191 194 198 188 195 191 190 196 203 205 207 214 214 216 212 208 212 209 207 211 215 220 228 227 217 229 238 241 249 250 254 261 264 265 262 258 257 255 260 257 258 257 257 261 263 267 264 264
201 203 206 206 204 202 200 195 192 191 191 193 194 193 194 196 196 196 197 196 195 191 190 185 184 182 184 182 182 181 177 176 176 176 186 188 188 187 186 186 189 189 188 191 194 198 206 206 209 211 211 214 210 216 213 208 211 217 221 218 224 226 232 240 249 252 250 250 251 256 260 267 261 255 254 257 262 263 264 264 256 266 271 271 264
202 202 206 205 200 198 195 192 193 194 192 191 192 195 194 195 195 195 197 198 198 192 186 179 177 180 183 186 186 179 174 185 179 181 192 189 188 188 185 186 187 185 183 190 192 197 201 207 206 204 206 209 214 215 215 215 215 220 225 230 230 230 235 244 246 249 255 257 257 259 261 260 262 260 252 253 259 259 261 259 266 270 273 275 274
204 204 207 203 196 189 187 189 191 192 191 190 191 192 193 195 196 195 197 197 197 190 180 176 178 186 189 186 178 171 174 179 183 185 197 196 195 191 183 187 187 188 182 184 188 193 199 201 202 203 205 209 212 216 218 217 220 223 228 233 236 240 246 249 254 259 260 258 260 261 259 261 261 262 261 256 253 256 253 252 256 260 262 265 267
199 204 206 199 194 187 187 185 185 187 187 188 190 191 192 193 196 197 197 196 193 187 179 179 185 187 176 175 172 168 173 183 186 188 194 193 192 193 192 196 194 186 165 185 188 193 196 198 203 205 205 209 214 217 219 222 221 225 232 237 241 244 247 250 255 260 262 263 261 259 263 260 258 261 257 254 254 250 250 251 250 251 254 261 266
196 200 198 199 195 185 179 181 182 181 183 185 188 189 192 193 197 198 197 193 187 187 184 186 191 185 179 183 173 168 174 183 190 193 193 192 174 177 185 194 187 185 185 186 181 189 192 200 206 206 207 209 214 220 222 223 226 228 232 239 244 246 250 253 257 258 258 257 257 257 255 253 254 256 260 255 250 248 251 252 255 258 263 268 269
194 195 197 192 190 187 183 180 179 180 182 183 185 189 192 193 196 198 194 189 185 186 186 184 185 190 186 182 172 167 174 188 192 188 185 183 178 195 194 191 189 189 188 191 183 187 190 199 203 204 207 209 213 219 222 222 229 235 239 242 247 250 251 255 257 257 257 258 255 251 248 246 247 248 251 254 252 249 247 252 254 260 263 266 269
186 190 192 196 193 186 185 184 181 182 182 184 187 190 191 191 193 192 190 188 185 186 185 186 188 192 196 185 169 166 181 191 187 183 186 186 186 195 195 183 178 190 196 195 189 187 196 199 204 204 205 207 212 218 221 225 231 236 239 242 246 252 255 254 253 254 257 257 254 249 247 241 240 243 245 248 250 250 253 250 254 263 270 273 276
189 193 195 195 196 193 188 185 183 181 182 184 185 187 188 189 189 188 191 190 184 183 185 187 185 187 189 191 181 181 190 188 184 188 192 192 191 193 192 185 180 191 199 198 192 191 197 198 198 200 197 201 214 219 223 225 227 232 239 247 249 250 249 250 252 253 252 251 252 250 248 250 245 243 247 255 264 278 269 265 265 266 270 276 276
196 196 195 195 199 194 188 184 181 183 183 184 184 185 186 185 185 187 190 187 180 182 183 183 182 178 184 194 197 188 189 194 194 198 198 199 196 193 193 189 187 192 190 190 192 194 198 195 189 189 193 203 215 222 221 217 224 234 240 248 249 248 250 251 252 253 255 251 249 252 254 248 241 231 226 230 236 244 245 259 268 270 273 273 274
202 195 193 192 194 193 184 182 182 184 183 182 182 182 183 186 186 186 185 185 181 181 192 191 180 172 189 194 199 198 193 197 201 203 203 201 197 195 194 191 186 187 187 182 187 192 202 201 194 191 197 204 214 222 205 189 203 227 246 256 257 253 250 250 250 251 255 259 260 255 256 244 220 222 227 227 231 228 234 237 245 254 260 264 270
201 194 190 188 190 189 185 184 183 183 181 179 178 177 178 185 184 184 183 182 180 176 178 179 177 180 195 194 192 197 202 202 203 206 206 204 198 196 195 191 185 180 181 180 184 192 203 204 198 197 201 203 209 215 187 188 201 211 220 241 250 252 251 252 251 253 256 259 258 259 259 256 252 249 253 230 218 224 227 229 234 239 242 246 248
198 191 188 191 191 190 186 179 180 181 180 180 175 175 181 182 181 181 179 180 182 181 177 181 188 191 197 197 193 201 208 210 207 206 202 202 202 198 193 191 190 183 178 178 173 186 199 201 197 195 202 207 219 200 184 189 197 203 210 222 242 248 251 252 256 255 259 261 263 263 263 260 264 235 236 253 260 232 211 220 225 231 237 238 239
207 199 195 190 187 181 178 177 180 181 181 178 178 177 176 176 175 174 177 179 178 182 183 190 194 199 196 196 195 206 208 213 212 203 200 205 204 202 196 193 191 184 185 182 181 193 196 195 197 200 205 213 225 187 180 187 196 200 207 209 237 241 245 252 255 259 258 259 260 263 260 261 259 256 255 253 247 249 255 227 221 228 235 223 219
203 197 191 181 176 172 168 174 179 180 174 171 171 170 164 167 170 171 175 174 177 177 183 192 194 193 192 195 200 206 212 215 216 207 203 204 205 211 196 193 192 189 186 184 189 188 197 201 200 205 208 212 222 178 181 189 199 202 203 202 235 239 246 250 251 253 256 258 262 261 264 265 267 264 260 260 253 255 254 257 258 257 255 261 252
200 184 181 174 174 170 169 168 167 166 167 167 165 167 165 166 168 168 170 172 174 178 181 190 191 186 189 200 202 207 212 215 215 214 209 207 212 214 192 184 181 177 182 186 191 178 207 209 203 204 214 218 220 175 186 197 203 203 185 206 229 241 249 252 253 256 260 262 260 262 264 266 271 270 261 180 221 248 256 255 254 252 254 261 278
185 180 178 172 169 164 160 154 157 159 158 161 161 163 164 163 167 170 171 174 175 179 184 186 188 180 194 201 207 210 213 215 215 216 216 216 217 214 196 184 184 192 187 187 192 194 204 204 200 208 218 231 244 181 189 198 201 180 173 217 222 234 241 247 255 262 263 262 261 257 250 247 262 264 254 173 202 211 252 256 253 251 253 253 256
185 176 167 164 160 152 148 152 151 156 158 159 160 160 158 161 165 167 172 175 179 181 180 179 184 185 192 200 206 210 213 215 216 218 218 217 215 214 203 183 184 186 190 185 179 206 204 194 200 216 219 237 246 199 182 193 193 175 195 212 230 235 242 248 258 261 263 264 262 245 231 245 258 253 233 217 192 196 242 250 253 252 254 255 261
167 159 155 156 151 145 147 152 155 157 157 156 157 154 155 157 162 167 171 174 180 181 180 180 183 184 195 201 207 209 214 217 220 220 218 213 209 205 198 180 181 186 191 179 181 204 212 195 194 217 232 249 264 213 164 183 178 174 190 217 231 243 249 257 259 263 262 266 266 234 221 241 252 254 268 176 176 204 244 250 254 260 260 263 268
152 155 152 150 147 142 151 153 154 152 151 153 152 153 150 151 154 160 165 174 179 180 180 178 182 188 199 200 204 208 214 219 221 220 218 213 204 197 187 185 188 193 196 200 198 206 197 182 164 231 238 248 264 283 175 169 164 170 186 210 227 242 257 262 267 270 270 259 254 258 215 205 229 244 242 179 190 208 249 259 260 263 264 264 285
156 145 140 137 142 144 146 145 140 144 146 148 147 141 141 144 148 157 165 170 170 169 174 178 185 194 197 199 201 209 212 219 224 217 213 208 203 193 184 179 186 192 194 194 190 196 182 161 150 82 325 296 290 293 119 153 161 173 186 213 228 243 258 266 267 267 266 268 264 256 270 196 208 224 224 198 194 206 237 264 263 260 300 19 345
116 124 133 134 134 131 128 124 131 138 140 143 143 137 137 141 147 151 154 153 152 163 172 177 186 192 198 200 206 209 214 220 218 207 205 195 170 183 206 205 209 207 201 197 192 186 154 120 121 168 263 276 100 82 258 140 154 169 179 204 239 249 285 274 282 277 275 276 274 274 280 201 179 196 203 195 191 195 213 246 276 10 13 1 318
122 123 128 127 124 123 119 120 126 129 134 138 135 132 132 138 139 141 140 143 151 161 168 176 184 189 187 198 204 204 203 209 198 202 202 181 163 180 193 202 205 203 198 193 173 149 133 130 133 249 264 248 235 165 194 182 153 168 172 192 230 274 13 302 269 273 277 280 284 279 112 121 142 154 160 150 163 173 194 234 273 351 33 13 279
110 112 113 108 103 103 104 104 105 110 119 124 127 126 132 135 134 135 141 145 152 159 165 174 180 187 189 196 198 202 208 191 190 200 196 180 176 188 184 192 204 199 192 177 160 139 143 154 161 215 217 222 205 202 153 106 117 140 157 185 214 241 288 273 271 262 270 278 285 303 83 105 115 128 131 148 161 184 222 145 193 202 223 233 245
104 104 108 111 115 117 113 107 107 106 101 108 116 124 130 127 124 133 144 150 155 157 167 172 178 185 188 188 189 199 202 197 194 197 186 173 190 196 191 198 199 189 178 168 153 136 136 171 196 204 213 200 167 140 107 109 119 141 148 159 193 225 274 291 269 254 273 360 54 82 101 115 117 119 145 173 198 215 241 253 221 208 220 228 230
103 107 108 107 107 109 113 112 106 99 101 103 113 122 119 113 115 123 132 137 144 151 163 163 162 160 175 185 193 204 202 192 202 209 197 175 194 197 192 196 193 181 166 149 126 109 180 204 213 219 192 158 109 152 204 155 155 138 147 159 170 175 220 228 260 288 330 321 332 103 105 115 127 148 191 209 229 173 180 209 204 211 212 228 239
77 88 103 105 102 96 89 90 89 86 92 96 98 96 100 109 118 127 129 132 135 146 151 153 158 162 172 191 201 199 191 189 204 193 181 172 172 188 187 186 190 177 156 134 139 170 194 207 203 205 151 123 141 185 203 189 167 166 177 151 165 176 210 231 229 232 235 237 186 210 167 117 44 149 264 46 79 111 169 191 194 206 240 249 232
77 81 86 89 92 95 95 94 91 92 95 98 97 100 110 119 126 132 130 131 133 142 147 150 156 157 174 191 205 172 174 194 184 174 179 182 184 188 192 193 185 167 163 158 181 194 201 197 199 192 178 184 199 198 200 201 189 199 188 163 182 204 211 211 227 206 204 214 173 138 141 190 175 187 192 198 195 191 209 231 241 245 251 267 322
83 77 80 87 92 93 94 96 97 99 98 99 104 112 119 124 131 127 136 135 133 138 139 136 146 155 161 169 190 171 191 188 164 117 56 25 355 254 203 161 41 38 75 174 204 190 188 194 185 176 187 202 198 199 144 61 53 30 12 286 215 217 240 246 78 20 288 213 221 225 223 218 221 227 229 216 178 200 231 248 254 255 254 251 251
83 85 82 81 83 91 95 95 98 102 104 105 104 109 121 127 123 126 130 123 126 131 131 142 158 174 176 180 191 177 175 158 132 117 114 86 61 48 25 38 77 38 35 23 29 127 135 156 172 118 28 265 223 98 96 80 56 18 359 27 21 34 47 29 57 34 334 273 238 243 242 248 242 231 241 224 225 224 237 239 244 169 259 275 281
86 84 80 81 85 90 92 92 94 99 101 102 103 104 98 97 104 112 112 111 118 122 161 163 173 189 163 176 167 159 155 146 144 146 137 119 91 38 41 44 48 47 39 29 28 31 45 38 25 151 92 62 65 87 92 98 130 150 141 125 110 98 106 116 151 207 214 232 247 254 254 254 259 255 253 249 250 252 258 258 257 235 268 289 275